Location: Austin
(30.3000°N, 97.7500°W)
Time: 05:49:55
(UTC-05:00)

BlueWalker 3 - Pass Details

Date: 16 June 2025
Orbit: 461 x 470 km, 53.2° (Epoch: 07 July)

Event Time Altitude Azimuth Distance (km) Brightness Sun altitude
Exits shadow 05:38:13 13° 212° (SSW) 1,455 3.7 -10.2°
Maximum altitude 05:41:25 67° 130° (SE) 504 2.0 -9.6°
Drops below altitude 10° 05:45:02 10° 47° (NE) 1,611 6.1 -9.0°
Sets 05:47:11 0° 45° (NE) 2,487 7.5 -8.6°
